Wetbulb
57.13 56.56 56.22 55.82 55.31 55.35 55.44 54.94 53.84 53.78 54.16 54.37 53.95 53.78 53.52 53.06 52.70 52.63 52.72 52.62 52.17 52.12 52.12 52.26 52.24 52.30 52.51 52.66 52.26 52.06 51.93 52.00 51.93 51.24 50.62 50.67 51.29 51.71 51.93 52.13 52.27 52.33 52.25 52.28 52.43 52.35 52.48 52.42 52.06 51.72 51.47 51.32 51.42 51.56 51.54 51.36 51.07 50.67 50.14 49.74 49.36 49.10 48.90 48.37 47.61 47.43 47.38 47.25 47.10
56.86 56.65 55.89 54.09 53.96 54.65 55.28 54.77 54.28 54.22 54.30 54.70 54.13 53.67 53.22 52.93 52.67 52.62 52.51 52.33 52.13 52.13 52.20 52.27 52.20 52.27 52.34 52.07 51.78 51.70 51.70 51.57 51.57 51.29 50.95 51.03 51.31 51.58 51.65 51.78 51.91 52.11 52.09 52.24 52.28 52.21 52.06 52.14 51.82 51.45 51.21 51.21 51.04 50.69 50.45 50.22 49.88 49.36 48.85 48.42 48.16 47.94 47.53 47.04 46.84 46.83 46.95 46.72 46.62
57.18 56.70 56.17 55.38 55.29 55.22 55.22 55.15 55.22 55.28 55.03 54.79 54.24 53.76 53.48 53.34 53.30 52.96 52.48 52.20 52.20 52.20 52.20 51.99 52.09 52.00 51.85 51.63 51.76 51.63 51.58 51.60 51.60 51.46 51.38 51.33 51.34 51.42 51.49 51.53 51.74 51.66 51.55 51.95 52.15 51.98 51.95 51.97 51.38 50.74 50.31 50.54 50.08 49.58 49.21 49.22 48.68 48.13 47.71 47.35 47.20 46.82 46.48 46.21 46.47 46.62 46.61 46.46 46.45
57.92 57.13 56.41 55.92 55.79 55.72 55.58 55.43 55.56 55.47 54.95 54.10 54.02 53.84 53.66 53.66 53.39 52.95 52.50 52.20 52.08 52.01 51.92 51.88 51.56 51.59 51.53 51.45 51.64 51.72 51.56 50.84 51.14 51.26 51.30 51.22 51.36 51.45 51.52 51.53 51.54 51.73 51.94 52.36 52.22 52.19 52.10 52.02 51.32 50.67 50.12 49.94 49.40 48.81 48.33 48.22 47.69 47.30 46.97 46.88 46.78 46.62 46.32 46.12 46.39 46.50 46.39 46.27 46.25
56.96 56.48 56.28 56.22 56.65 56.71 56.64 56.44 55.93 55.22 54.58 53.81 53.46 53.18 53.11 53.17 52.86 52.48 52.02 51.49 51.40 51.46 51.62 51.55 51.05 51.17 51.37 51.40 51.37 51.50 51.40 50.88 49.41 50.04 51.00 51.16 51.37 51.56 51.75 51.84 51.66 51.68 51.93 52.21 52.23 52.31 52.17 51.89 50.95 50.27 49.73 49.25 48.53 48.11 47.87 47.90 47.25 46.82 46.41 46.42 46.55 46.62 46.57 46.37 46.28 46.25 46.14 45.87 45.84
55.72 55.94 56.22 56.36 56.72 57.07 56.98 56.35 55.78 55.07 54.50 53.98 52.91 52.30 52.04 52.04 51.73 51.30 50.81 50.54 50.64 50.95 50.94 50.22 49.95 50.04 50.40 51.18 51.09 50.94 50.78 50.63 50.12 50.12 50.50 50.76 51.21 51.50 51.68 51.66 51.70 51.87 51.88 52.00 52.08 52.03 51.93 51.37 50.29 49.50 49.16 48.61 48.00 47.77 47.66 47.52 46.93 46.32 45.79 45.68 46.08 46.30 46.30 46.19 46.12 46.03 45.91 45.37 45.27
55.00 55.23 55.31 55.40 55.64 55.79 55.77 55.42 55.14 54.71 54.36 53.78 52.69 51.81 51.35 51.28 50.92 50.49 50.19 50.16 50.29 50.25 49.87 49.20 49.68 50.03 50.33 50.75 50.55 50.30 50.04 49.79 49.96 50.11 50.16 50.29 50.85 51.09 51.33 51.31 51.59 51.62 51.58 51.63 51.56 51.41 51.15 50.63 49.51 48.46 47.52 46.67 46.85 47.11 47.31 47.25 46.76 46.20 45.78 45.61 45.98 46.18 46.14 45.87 45.85 45.57 45.30 45.06 44.79
53.96 53.83 53.76 54.08 53.86 53.79 53.95 54.02 54.09 53.88 53.39 52.61 51.76 51.30 51.00 50.75 50.01 49.62 49.56 49.72 49.74 49.78 49.64 49.65 50.34 50.39 50.08 49.78 49.58 49.42 49.38 49.40 49.42 49.69 49.93 50.09 50.40 50.58 50.72 50.85 50.87 50.91 50.99 51.15 51.04 50.82 50.42 49.90 48.95 48.08 47.30 46.60 46.26 46.54 46.94 47.23 46.78 46.34 45.99 45.86 46.10 45.96 45.61 45.33 45.38 45.25 44.88 44.60 44.31
52.90 52.84 53.09 53.41 53.56 53.22 52.82 52.55 52.62 52.48 52.05 51.39 50.87 50.72 50.43 49.73 49.13 48.97 49.09 49.15 49.22 49.44 49.68 49.79 49.83 49.59 49.25 48.83 48.57 48.51 48.60 48.56 48.76 49.12 49.42 49.66 49.64 49.71 49.79 49.81 49.90 50.04 50.18 50.46 50.36 50.13 49.80 49.21 48.29 47.55 47.00 46.61 46.35 46.43 46.46 46.61 46.09 45.83 45.80 45.68 45.72 45.52 45.32 45.25 45.25 45.02 44.61 44.23 43.94
52.15 52.23 52.31 52.47 53.31 53.31 52.69 51.78 51.57 51.34 51.06 50.56 50.34 50.00 49.28 47.64 48.28 48.84 49.22 49.28 49.29 49.47 49.47 49.17 48.90 48.48 48.17 47.86 47.76 47.83 47.96 48.25 48.28 48.47 48.63 48.67 48.53 48.60 48.67 48.72 48.81 48.99 49.21 49.46 49.44 49.26 48.90 48.14 47.43 46.98 46.85 46.72 46.39 45.99 45.77 45.36 44.96 44.87 44.98 45.20 45.21 45.18 45.15 45.11 45.12 44.73 44.28 43.74 43.65
52.11 52.11 52.04 51.71 52.40 52.46 52.06 51.57 51.01 50.72 50.51 50.16 49.74 49.37 48.86 48.21 49.08 49.59 49.72 49.74 49.51 49.27 48.90 48.45 48.08 47.59 47.20 47.08 47.11 47.24 47.39 47.64 47.94 48.10 48.10 47.96 47.94 48.00 48.17 48.29 48.27 48.35 48.61 48.79 48.86 48.61 48.10 47.49 47.14 46.94 46.64 46.35 45.99 45.35 44.86 44.57 44.28 44.15 44.37 44.78 44.88 44.66 44.60 44.64 44.64 44.38 44.00 43.59 43.48
52.13 51.99 51.85 51.71 51.85 51.99 52.00 51.71 51.15 50.63 50.17 49.68 49.23 49.25 49.46 49.92 50.19 50.09 49.71 49.60 49.07 48.57 48.15 47.86 47.35 47.00 46.75 46.68 46.75 46.59 46.63 47.22 47.41 47.57 47.67 47.62 47.56 47.62 47.73 47.83 47.93 48.10 48.27 48.46 48.39 47.93 47.35 46.88 46.55 46.26 45.93 45.58 45.31 44.86 44.54 44.57 44.28 44.03 44.08 44.31 44.35 44.03 43.65 43.56 43.84 43.87 43.69 43.57 43.33
51.93 51.72 51.51 51.72 51.86 51.85 51.75 51.51 51.00 50.45 49.88 49.42 49.33 49.60 49.90 50.21 50.04 49.58 49.22 48.94 48.16 47.71 47.33 47.19 46.99 46.75 46.63 46.45 46.37 46.37 46.55 46.97 47.08 47.09 47.02 47.09 47.09 47.16 47.29 47.28 47.43 47.40 47.49 47.63 47.46 47.02 46.56 46.08 45.82 45.35 44.98 44.72 44.66 44.79 44.84 44.66 44.35 44.13 43.88 43.87 43.69 43.53 43.38 43.23 43.37 43.47 43.40 43.34 42.85
52.05 51.92 51.85 51.98 51.88 51.60 51.03 50.63 50.33 50.11 49.77 49.57 49.68 49.82 49.96 50.03 49.42 48.83 48.37 47.86 47.37 47.04 46.86 46.81 46.55 46.39 46.18 46.11 46.14 46.24 46.55 46.62 46.63 46.57 46.51 46.50 46.82 47.02 47.08 46.93 46.91 46.87 46.66 46.55 46.44 46.11 45.69 45.30 45.04 44.72 44.49 44.33 44.29 44.42 44.37 44.18 44.02 43.79 43.60 43.32 43.01 42.94 42.94 42.86 42.96 42.94 42.79 42.67 42.29
52.38 52.46 52.52 52.49 52.17 51.49 50.80 50.34 50.14 50.03 49.97 49.84 49.90 49.90 49.75 49.30 48.59 47.93 47.51 47.29 47.05 46.84 46.66 46.46 46.18 45.93 45.80 45.93 46.17 46.26 46.39 46.28 46.09 45.97 45.97 46.11 46.58 46.90 46.82 46.80 46.65 46.48 46.23 45.96 45.64 45.23 44.93 44.76 44.72 44.54 44.28 44.03 43.91 43.72 43.61 43.33 43.15 43.11 42.97 42.77 42.55 42.48 42.40 42.28 42.25 42.12 41.95 41.77 41.48
52.57 52.71 52.89 52.76 52.23 51.59 51.05 50.72 50.53 50.48 50.48 50.27 50.12 49.80 49.25 48.75 48.22 47.67 47.14 46.98 46.87 46.56 46.12 45.73 45.78 45.80 45.82 45.60 45.86 45.92 45.93 45.85 45.87 45.82 45.83 46.05 46.26 46.45 46.44 46.42 46.18 45.95 45.64 45.22 44.81 44.62 44.66 44.82 44.86 44.74 44.57 44.32 43.90 43.62 43.23 42.94 42.70 42.44 42.32 42.23 42.08 42.00 41.76 41.43 41.17 41.05 40.79 40.66 40.28
52.46 52.65 52.70 52.53 52.03 51.62 51.29 51.00 50.90 50.84 50.66 50.42 49.93 49.26 48.70 48.26 47.98 47.35 46.60 46.39 46.25 45.90 45.52 45.47 45.53 45.58 45.52 45.27 45.40 45.46 45.51 45.53 45.78 45.94 45.96 46.04 45.92 45.92 45.84 45.67 45.43 45.20 44.83 44.38 44.24 44.15 44.28 44.48 44.50 44.59 44.44 44.27 43.86 43.39 42.99 42.61 42.12 41.66 41.38 41.31 41.23 41.11 40.83 40.39 40.29 40.04 39.78 39.45 38.96
52.15 52.23 52.23 52.15 51.89 51.56 51.38 51.28 51.03 50.85 50.47 49.99 49.37 48.85 48.31 47.99 47.51 46.99 46.44 45.94 45.75 45.57 45.47 45.32 45.32 45.32 45.24 45.22 45.32 45.28 45.22 45.54 45.67 45.85 45.94 45.97 45.70 45.51 45.35 45.12 44.77 44.52 44.25 43.86 43.84 43.79 43.79 43.73 43.77 43.83 43.71 43.40 43.07 42.63 42.16 41.57 41.18 40.72 40.45 40.22 40.14 40.02 39.90 39.59 39.43 39.23 38.89 38.47 38.02
51.65 51.66 51.60 51.45 51.34 51.16 50.98 50.65 50.58 50.31 49.89 49.42 48.99 48.57 48.09 47.72 47.14 46.76 46.37 45.98 45.63 45.60 45.58 45.23 45.23 45.21 45.25 45.17 45.32 45.21 45.03 45.52 45.60 45.72 45.83 45.79 45.52 45.19 44.97 44.56 44.29 43.95 43.67 43.50 43.46 43.42 43.28 43.08 42.98 42.73 42.34 41.78 41.42 41.18 40.82 40.46 40.18 39.95 39.79 39.55 39.40 39.24 39.05 38.85 38.65 38.53 38.25 37.89 37.53
51.21 51.14 51.07 50.97 50.73 50.52 50.24 50.09 49.93 49.71 49.40 48.94 48.57 48.08 47.60 47.02 46.70 46.41 46.17 45.95 45.78 45.79 45.58 45.18 45.06 45.14 45.36 45.42 45.44 45.27 45.27 45.53 45.69 45.69 45.68 45.62 45.29 44.95 44.60 44.38 43.90 43.62 43.26 43.06 42.96 42.68 42.45 42.08 41.79 41.34 40.93 40.44 40.16 40.00 39.92 39.93 39.82 39.54 39.30 39.03 38.67 38.50 38.30 38.21 38.08 37.95 37.87 37.71 37.51
50.87 50.86 50.77 50.72 50.59 50.15 49.62 49.42 49.20 48.90 48.57 48.02 47.71 47.24 46.82 46.48 46.40 46.27 46.10 46.00 45.88 45.72 45.45 45.14 45.09 45.13 45.23 45.31 45.21 45.21 45.28 45.23 45.50 45.55 45.46 45.28 44.79 44.30 43.89 43.59 43.20 42.88 42.53 42.17 41.81 41.46 41.26 40.97 40.63 40.33 40.15 39.97 39.60 39.57 39.58 39.48 38.95 38.62 38.33 38.18 38.10 37.95 37.96 37.92 37.85 37.78 37.60 37.42 37.24
50.65 50.69 50.52 50.60 49.80 49.08 48.61 48.35 48.00 47.73 47.35 47.15 46.86 46.52 46.22 46.15 46.10 46.10 46.19 46.16 45.96 45.72 45.43 45.33 45.36 45.36 45.29 45.31 45.21 45.05 44.98 44.98 45.15 45.09 44.85 44.24 43.82 43.27 42.89 42.62 42.30 41.88 41.45 40.93 40.34 39.92 39.77 39.69 39.59 39.41 39.31 39.31 38.96 38.67 38.47 38.56 37.94 37.71 37.52 37.54 37.64 37.68 37.61 37.59 37.53 37.36 37.23 37.05 36.99
50.45 50.31 50.20 49.86 49.04 47.89 47.12 47.03 46.95 46.69 46.49 46.25 46.00 45.88 45.67 45.62 45.68 45.82 45.89 45.92 45.47 45.44 45.54 45.57 45.55 45.39 45.09 44.93 44.76 44.39 44.04 43.94 44.02 43.99 43.65 43.01 42.60 42.22 42.02 42.01 41.50 40.97 40.50 39.91 39.02 38.31 37.89 37.69 37.77 37.82 38.04 38.20 38.06 37.87 37.78 37.78 37.39 37.21 37.08 36.93 36.95 37.08 37.02 37.14 37.09 37.03 37.02 36.96 37.11
49.90 49.73 49.34 48.77 48.11 47.35 46.72 46.23 46.07 45.80 45.49 45.39 45.17 45.11 45.16 45.11 45.38 45.51 45.33 45.09 45.00 44.99 45.08 45.13 44.99 44.58 44.19 44.06 43.82 43.26 42.82 42.42 42.18 42.14 41.94 41.50 41.22 40.89 40.72 40.57 40.50 40.32 40.07 39.51 37.93 36.90 36.28 35.92 36.20 36.45 36.74 36.96 37.12 37.25 37.30 37.20 36.89 36.65 36.43 36.30 36.47 36.52 36.69 36.85 36.92 36.87 36.89 36.93 37.23
49.48 48.92 48.28 47.58 47.20 46.62 46.04 45.39 44.92 44.50 44.30 44.20 44.31 44.40 44.53 44.74 44.82 44.87 44.61 44.35 44.35 44.35 44.23 44.06 43.56 43.19 42.86 42.90 42.48 42.03 41.53 41.07 40.53 40.22 39.93 39.56 39.35 39.28 39.23 39.21 39.19 39.45 39.42 38.69 36.82 35.84 35.28 34.77 35.18 35.50 35.72 35.88 35.89 36.19 36.42 36.60 36.37 36.16 36.02 35.96 35.99 36.12 36.28 36.55 36.68 36.82 36.99 37.04 37.16
48.77 48.05 47.28 46.60 46.08 45.43 44.69 44.01 43.54 43.35 43.19 43.32 43.57 43.65 43.82 43.95 44.07 43.95 43.61 43.31 43.06 43.02 42.85 42.60 42.14 41.83 41.49 41.22 40.77 40.44 40.08 39.93 39.40 38.96 38.51 38.15 38.08 38.22 38.38 38.51 38.67 39.23 39.38 38.59 36.63 35.67 35.14 34.75 34.48 34.33 34.43 34.88 35.00 35.01 35.08 35.29 35.44 35.53 35.60 35.74 35.90 35.98 35.98 36.06 36.31 36.64 36.92 37.01 37.01
47.53 46.70 45.94 45.08 44.34 43.53 42.85 42.53 42.32 42.32 42.36 42.44 42.36 42.44 42.56 42.77 42.77 42.48 42.10 41.68 41.51 41.51 41.46 41.11 40.89 40.36 39.93 39.85 39.27 38.87 38.71 38.92 38.91 38.64 38.35 37.94 37.73 37.74 38.03 38.46 38.55 38.90 39.10 38.17 36.83 35.97 35.47 34.97 34.66 34.25 34.06 34.23 34.18 34.24 34.33 34.35 34.82 35.06 35.42 35.64 35.97 36.16 36.10 36.02 36.11 36.29 36.48 36.67 36.94
45.57 44.65 43.83 43.14 42.31 41.79 41.58 41.58 41.62 41.62 41.62 41.66 41.49 41.53 41.62 41.54 41.13 40.67 40.26 40.12 40.01 39.81 39.81 39.79 39.54 39.24 39.15 39.23 38.78 38.37 38.11 38.19 38.53 38.67 38.60 38.40 37.77 37.68 37.97 38.21 38.04 38.20 38.26 37.60 37.10 36.55 36.13 35.67 35.31 34.94 34.40 33.59 33.70 33.74 33.80 34.04 34.36 34.75 35.16 35.64 35.93 36.04 35.99 35.85 35.97 36.05 35.98 35.87 36.10
43.54 42.82 42.17 41.62 41.30 41.26 41.30 41.50 41.46 41.54 41.50 41.42 41.26 41.05 40.81 40.20 39.62 39.08 38.70 38.39 38.21 38.14 38.24 38.52 38.62 38.81 38.98 38.79 38.70 38.53 38.43 38.21 38.08 38.23 38.31 37.98 37.71 37.78 37.94 37.85 37.84 37.68 37.26 36.92 36.81 36.45 35.90 35.20 34.54 33.91 33.41 32.99 32.98 33.32 33.72 34.02 34.35 34.71 35.01 35.31 35.45 35.54 35.55 35.63 35.74 35.67 35.49 35.38 35.42
42.52 42.50 42.32 41.98 42.03 42.03 41.99 41.95 41.67 41.34 41.14 40.69 40.41 39.93 39.35 38.61 37.95 37.54 37.12 36.97 37.06 37.29 37.46 37.94 38.34 38.33 38.28 37.94 37.95 37.95 37.95 37.99 38.11 38.10 38.12 37.93 37.53 37.25 37.24 37.31 37.62 37.37 36.25 33.98 34.07 33.53 32.93 32.62 32.61 32.74 33.07 33.65 33.60 33.98 34.35 34.38 34.34 34.29 34.28 34.45 34.66 34.89 35.01 35.05 35.12 35.20 35.20 35.10 35.09
42.80 42.97 42.95 42.86 42.52 42.19 41.67 41.18 40.65 40.20 39.68 39.09 38.53 38.16 37.74 37.28 36.94 36.69 36.45 36.50 36.80 37.03 37.39 37.85 37.62 37.58 37.56 37.50 37.34 37.18 37.10 37.30 37.46 37.57 37.58 37.26 36.42 36.30 36.36 36.33 36.63 36.29 34.74 31.37 31.86 31.87 31.95 32.12 32.30 32.49 32.64 32.96 32.53 32.77 33.16 33.34 33.30 33.35 33.46 33.60 33.95 34.15 34.37 34.58 34.77 34.88 35.03 35.03 34.83
43.36 43.22 42.73 42.14 41.38 40.68 40.03 39.62 39.10 38.63 38.08 37.58 37.17 36.99 36.85 36.63 36.71 36.68 36.55 36.52 36.68 36.84 37.08 37.10 36.80 36.78 36.83 36.85 36.67 36.60 36.58 36.60 36.69 36.59 36.35 36.06 35.82 35.59 35.48 35.31 35.92 35.20 33.42 31.33 31.88 31.98 31.83 31.72 31.62 31.54 31.56 31.79 31.39 31.83 32.46 32.59 32.74 32.90 33.11 33.45 33.81 34.20 34.47 34.66 34.98 35.10 35.18 35.01 34.89
43.01 42.18 41.30 40.45 39.70 39.08 38.75 38.44 38.04 37.77 37.38 36.88 36.67 36.46 36.57 36.73 36.81 36.74 36.54 36.41 36.53 36.52 36.43 36.29 36.27 36.12 36.07 35.96 35.88 35.79 35.78 35.69 35.60 35.47 35.44 35.58 35.65 35.46 35.29 35.12 36.20 34.33 31.55 31.51 31.43 31.29 30.98 30.79 30.85 30.84 30.91 31.06 31.01 31.54 32.01 32.35 32.63 33.09 33.43 33.77 34.14 34.52 34.84 35.03 35.00 34.98 35.07 35.17 35.01
41.50 40.57 39.71 38.80 38.47 38.14 37.98 37.72 37.44 37.23 36.90 36.71 36.72 36.72 36.77 36.95 36.83 36.60 36.22 36.11 36.13 36.12 35.96 36.06 36.04 35.97 35.80 35.78 35.67 35.53 35.49 35.50 35.72 35.97 36.03 36.13 36.04 35.68 35.39 35.47 36.67 33.97 30.52 31.18 30.84 30.49 30.33 30.18 30.30 30.35 30.32 30.17 30.76 31.53 32.11 32.51 32.96 33.37 33.71 33.69 34.03 34.47 34.84 35.01 35.12 35.18 35.13 35.11 34.98
39.74 39.12 38.49 38.09 37.74 37.51 37.37 37.20 37.11 36.97 36.82 36.69 36.69 36.90 37.01 36.86 36.64 36.37 36.24 35.97 35.80 35.84 35.88 36.01 36.05 36.14 36.12 36.11 36.39 36.31 36.21 36.14 36.45 36.50 36.44 36.41 36.08 35.57 35.08 35.12 36.02 33.49 30.27 30.69 30.30 29.96 29.81 29.75 29.84 29.81 29.76 29.84 30.87 31.75 32.45 32.70 32.98 33.34 33.53 33.42 33.63 34.05 34.43 34.74 34.85 34.93 34.96 34.88 34.67
38.50 38.10 37.93 37.59 37.20 37.06 36.96 37.09 37.08 37.06 36.94 36.85 36.97 36.98 36.95 36.54 36.45 36.41 36.24 35.90 35.65 35.55 35.58 35.75 36.06 36.28 36.44 36.57 36.71 36.52 36.36 36.56 36.41 36.26 36.19 36.06 35.63 35.09 34.56 34.33 35.02 33.22 30.58 30.17 29.87 29.61 29.41 29.38 29.45 29.41 29.57 30.09 31.04 31.70 32.22 32.36 32.64 32.98 33.18 33.04 33.01 33.26 33.75 34.21 34.34 34.39 34.35 34.37 34.12
37.83 37.73 37.61 37.20 36.86 36.83 37.01 37.18 37.09 37.05 37.03 36.95 36.83 36.72 36.53 36.18 36.16 36.29 36.33 35.90 35.79 35.62 35.54 35.96 36.31 36.50 36.64 36.53 36.46 36.31 36.24 36.38 36.13 35.87 35.60 35.31 35.03 34.51 34.02 33.77 34.33 33.72 31.97 29.96 29.56 29.36 29.16 29.13 29.17 29.18 29.42 29.95 30.62 31.15 31.55 31.81 32.14 32.39 32.57 32.63 32.58 32.85 33.33 33.70 33.76 33.77 33.68 33.65 33.44
37.55 37.39 37.22 37.10 36.95 37.03 37.10 37.22 36.93 36.69 36.57 36.36 36.22 36.12 36.12 35.93 36.11 36.21 36.29 35.96 36.16 36.13 36.17 36.38 36.37 36.45 36.42 36.31 35.92 35.84 35.95 36.06 35.73 35.58 35.32 34.99 34.91 34.45 33.87 33.32 33.63 33.80 32.94 30.48 29.60 29.20 29.03 29.00 28.95 28.96 29.14 29.59 30.18 30.60 30.96 31.14 31.41 31.60 31.78 31.99 32.16 32.46 32.66 32.69 32.64 32.57 32.53 32.62 32.00
37.30 37.30 37.17 37.05 36.99 37.06 37.02 36.86 36.57 36.40 36.25 36.10 36.10 36.14 36.21 36.22 36.42 36.60 36.71 36.60 36.79 36.60 36.31 36.14 36.10 36.22 36.16 35.74 35.45 35.40 35.49 35.54 35.41 35.29 35.23 35.38 35.09 34.35 33.43 32.94 33.03 33.34 32.98 31.10 29.80 29.23 29.00 28.87 28.87 28.79 28.91 29.37 30.00 30.30 30.45 30.52 30.60 30.62 30.80 30.94 30.94 31.05 31.21 31.28 31.24 31.17 31.19 31.43 31.19
37.57 37.56 37.38 37.20 37.06 36.91 36.61 36.23 36.12 36.29 36.46 36.64 36.70 36.73 36.75 36.56 36.55 36.78 37.02 36.86 36.84 36.59 36.25 35.98 35.95 36.07 35.88 35.19 35.12 35.02 34.91 34.88 35.02 35.17 35.30 35.45 35.17 34.37 33.24 32.75 32.95 33.25 33.05 31.83 30.42 29.50 29.03 28.81 28.70 28.66 28.85 29.40 29.85 29.97 29.94 29.82 29.65 29.42 29.36 29.44 29.36 29.36 29.31 29.67 30.03 30.23 30.29 30.42 30.57
37.71 37.54 37.33 37.19 37.15 37.00 36.75 36.28 36.43 36.72 37.11 37.38 37.31 37.19 36.95 36.64 36.73 36.82 36.88 36.68 36.59 36.32 36.11 35.91 35.85 35.90 35.74 35.07 35.07 34.85 34.52 34.05 34.26 34.78 35.09 35.18 35.15 34.61 33.82 33.55 33.38 33.51 33.46 33.00 31.41 30.05 29.10 28.72 28.57 28.54 28.66 29.08 29.37 29.45 29.36 29.04 28.45 27.92 27.60 27.82 28.08 27.89 27.87 28.26 28.89 29.12 29.40 29.60 29.83
MSLP
1015.63 1015.63 1015.63 1015.59 1015.55 1015.51 1015.47 1015.47 1015.47 1015.43 1015.31 1015.19 1015.07 1014.99 1014.95 1014.99 1014.99 1015.07 1015.07 1015.19 1015.27 1015.35 1015.39 1015.43 1015.43 1015.39 1015.35 1015.35 1015.35 1015.35 1015.35 1015.35 1015.35 1015.23 1015.15 1015.03 1014.87 1014.75 1014.71 1014.63 1014.63 1014.63 1014.67 1014.75 1014.91 1015.03 1015.11 1015.19 1015.23 1015.19 1015.19 1015.19 1015.23 1015.31 1015.35 1015.43 1015.51 1015.63 1015.71 1015.79 1015.79 1015.83 1015.87 1015.83 1015.83 1015.83 1015.79 1015.79 1015.83
1015.63 1015.55 1015.47 1015.43 1015.43 1015.39 1015.35 1015.35 1015.23 1015.15 1015.07 1015.03 1015.03 1015.03 1015.03 1015.03 1015.03 1015.07 1015.11 1015.23 1015.35 1015.47 1015.55 1015.59 1015.63 1015.59 1015.55 1015.47 1015.47 1015.51 1015.47 1015.43 1015.31 1015.19 1015.07 1014.95 1014.87 1014.75 1014.67 1014.63 1014.55 1014.55 1014.55 1014.63 1014.71 1014.79 1014.91 1015.03 1015.07 1015.07 1015.07 1015.11 1015.19 1015.31 1015.35 1015.47 1015.51 1015.59 1015.63 1015.67 1015.71 1015.75 1015.79 1015.75 1015.71 1015.67 1015.67 1015.63 1015.63
1015.55 1015.47 1015.39 1015.35 1015.27 1015.19 1015.11 1015.03 1014.91 1014.83 1014.79 1014.83 1014.95 1015.03 1015.07 1015.03 1015.07 1015.11 1015.19 1015.35 1015.47 1015.59 1015.67 1015.75 1015.83 1015.87 1015.79 1015.79 1015.75 1015.71 1015.63 1015.47 1015.27 1015.15 1015.07 1014.95 1014.83 1014.75 1014.63 1014.59 1014.47 1014.47 1014.47 1014.55 1014.63 1014.71 1014.79 1014.87 1014.91 1014.95 1014.99 1015.03 1015.15 1015.27 1015.35 1015.39 1015.47 1015.55 1015.59 1015.63 1015.67 1015.71 1015.67 1015.63 1015.59 1015.59 1015.55 1015.47 1015.47
1015.43 1015.35 1015.27 1015.19 1015.15 1015.07 1014.91 1014.75 1014.63 1014.63 1014.71 1014.79 1014.83 1014.91 1014.95 1015.03 1015.07 1015.23 1015.39 1015.47 1015.63 1015.71 1015.83 1015.95 1016.07 1016.11 1016.07 1015.99 1015.91 1015.75 1015.55 1015.39 1015.23 1015.07 1014.95 1014.91 1014.83 1014.71 1014.63 1014.55 1014.47 1014.47 1014.47 1014.51 1014.63 1014.67 1014.75 1014.79 1014.87 1014.91 1014.95 1015.03 1015.11 1015.19 1015.23 1015.31 1015.35 1015.43 1015.47 1015.51 1015.59 1015.59 1015.55 1015.47 1015.47 1015.47 1015.47 1015.39 1015.39
1015.19 1015.19 1015.15 1015.07 1014.95 1014.87 1014.79 1014.71 1014.63 1014.71 1014.79 1014.91 1014.91 1014.95 1014.99 1015.11 1015.19 1015.35 1015.47 1015.63 1015.79 1015.95 1016.15 1016.31 1016.35 1016.31 1016.19 1016.03 1015.79 1015.55 1015.35 1015.27 1015.19 1015.07 1014.91 1014.83 1014.75 1014.67 1014.63 1014.51 1014.47 1014.47 1014.47 1014.47 1014.55 1014.63 1014.75 1014.79 1014.83 1014.91 1014.99 1015.07 1015.11 1015.11 1015.15 1015.19 1015.23 1015.27 1015.31 1015.35 1015.35 1015.43 1015.47 1015.43 1015.39 1015.35 1015.35 1015.35 1015.35
1015.07 1015.07 1015.03 1014.95 1014.87 1014.79 1014.79 1014.79 1014.87 1014.95 1015.03 1015.07 1015.07 1015.15 1015.19 1015.27 1015.35 1015.51 1015.71 1015.91 1016.11 1016.35 1016.55 1016.67 1016.55 1016.31 1016.07 1015.79 1015.59 1015.39 1015.31 1015.19 1015.15 1015.03 1014.91 1014.75 1014.63 1014.55 1014.47 1014.47 1014.43 1014.43 1014.43 1014.47 1014.51 1014.63 1014.75 1014.87 1014.91 1014.95 1015.03 1015.11 1015.11 1015.11 1015.11 1015.19 1015.19 1015.19 1015.19 1015.19 1015.19 1015.27 1015.31 1015.27 1015.23 1015.23 1015.23 1015.23 1015.23
1014.95 1014.91 1014.91 1014.83 1014.83 1014.87 1014.91 1014.95 1015.03 1015.07 1015.07 1015.15 1015.19 1015.27 1015.35 1015.47 1015.63 1015.87 1016.07 1016.27 1016.47 1016.63 1016.75 1016.63 1016.39 1016.07 1015.79 1015.59 1015.43 1015.35 1015.27 1015.19 1015.11 1014.99 1014.87 1014.71 1014.51 1014.39 1014.35 1014.27 1014.27 1014.27 1014.31 1014.39 1014.47 1014.63 1014.79 1014.91 1014.99 1015.03 1015.07 1015.15 1015.15 1015.11 1015.11 1015.15 1015.11 1015.07 1015.07 1015.07 1015.07 1015.11 1015.11 1015.07 1015.07 1015.11 1015.15 1015.15 1015.15
1014.95 1014.91 1014.91 1014.87 1014.91 1014.99 1014.99 1014.95 1014.95 1014.95 1014.99 1015.07 1015.19 1015.35 1015.51 1015.79 1015.99 1016.19 1016.35 1016.47 1016.59 1016.63 1016.51 1016.35 1016.07 1015.87 1015.71 1015.59 1015.43 1015.35 1015.23 1015.15 1015.07 1014.91 1014.79 1014.63 1014.43 1014.31 1014.19 1014.15 1014.15 1014.19 1014.19 1014.35 1014.47 1014.63 1014.79 1014.95 1015.03 1015.07 1015.07 1015.07 1015.07 1014.99 1015.03 1015.07 1015.07 1015.07 1015.03 1014.99 1014.99 1014.99 1014.95 1014.91 1014.91 1014.99 1015.07 1015.07 1015.11
1015.15 1015.11 1015.07 1015.03 1015.07 1015.07 1014.99 1014.95 1014.99 1014.99 1015.07 1015.15 1015.31 1015.51 1015.79 1016.07 1016.23 1016.31 1016.35 1016.35 1016.35 1016.31 1016.15 1015.95 1015.79 1015.75 1015.71 1015.67 1015.59 1015.43 1015.27 1015.07 1014.95 1014.79 1014.67 1014.55 1014.39 1014.23 1014.15 1014.07 1014.07 1014.11 1014.19 1014.31 1014.47 1014.63 1014.75 1014.87 1014.91 1014.95 1014.95 1014.95 1014.87 1014.83 1014.87 1014.91 1014.99 1015.07 1015.11 1015.11 1015.07 1014.99 1014.91 1014.83 1014.79 1014.87 1014.95 1014.99 1015.03
1015.27 1015.23 1015.19 1015.07 1014.95 1014.91 1014.95 1015.11 1015.07 1015.11 1015.19 1015.31 1015.51 1015.79 1016.03 1016.19 1016.23 1016.27 1016.27 1016.19 1016.07 1015.99 1015.87 1015.79 1015.75 1015.75 1015.79 1015.79 1015.71 1015.51 1015.31 1015.07 1014.87 1014.67 1014.55 1014.43 1014.31 1014.19 1014.07 1014.03 1014.03 1014.07 1014.11 1014.23 1014.43 1014.55 1014.63 1014.75 1014.75 1014.75 1014.75 1014.75 1014.75 1014.71 1014.75 1014.87 1014.95 1015.07 1015.19 1015.23 1015.19 1015.07 1014.91 1014.83 1014.79 1014.79 1014.87 1014.91 1014.91
1015.31 1015.27 1015.19 1015.07 1014.91 1014.83 1014.91 1015.07 1015.07 1015.19 1015.35 1015.59 1015.79 1015.91 1016.03 1016.07 1016.07 1016.07 1016.03 1015.95 1015.79 1015.75 1015.71 1015.75 1015.79 1015.83 1015.87 1015.83 1015.71 1015.51 1015.31 1015.11 1014.91 1014.71 1014.47 1014.35 1014.19 1014.07 1014.03 1013.95 1013.91 1013.91 1013.99 1014.07 1014.23 1014.39 1014.47 1014.55 1014.59 1014.55 1014.59 1014.63 1014.63 1014.67 1014.71 1014.75 1014.87 1014.99 1015.07 1015.11 1015.11 1015.07 1014.95 1014.87 1014.83 1014.83 1014.83 1014.83 1014.87
1015.35 1015.35 1015.23 1015.15 1015.07 1014.99 1014.99 1015.03 1015.15 1015.35 1015.59 1015.75 1015.83 1015.87 1015.91 1015.91 1015.83 1015.79 1015.71 1015.63 1015.63 1015.63 1015.63 1015.75 1015.87 1015.91 1015.91 1015.79 1015.63 1015.47 1015.27 1015.07 1014.83 1014.63 1014.43 1014.23 1014.11 1014.03 1013.91 1013.87 1013.83 1013.83 1013.87 1013.91 1014.07 1014.19 1014.27 1014.35 1014.39 1014.39 1014.43 1014.47 1014.55 1014.59 1014.63 1014.63 1014.67 1014.71 1014.71 1014.75 1014.83 1014.91 1014.91 1014.95 1014.95 1014.91 1014.91 1014.87 1014.91
1015.47 1015.39 1015.31 1015.19 1015.11 1015.11 1015.11 1015.19 1015.35 1015.51 1015.63 1015.71 1015.71 1015.67 1015.63 1015.59 1015.55 1015.51 1015.47 1015.47 1015.51 1015.59 1015.67 1015.79 1015.87 1015.91 1015.79 1015.67 1015.51 1015.35 1015.19 1014.91 1014.67 1014.47 1014.31 1014.15 1014.07 1013.91 1013.87 1013.79 1013.79 1013.79 1013.83 1013.83 1013.91 1014.07 1014.11 1014.19 1014.23 1014.27 1014.27 1014.31 1014.35 1014.43 1014.43 1014.47 1014.47 1014.47 1014.51 1014.59 1014.67 1014.79 1014.91 1015.03 1015.03 1015.03 1014.99 1014.99 1015.03
1015.43 1015.35 1015.23 1015.19 1015.19 1015.19 1015.31 1015.39 1015.47 1015.47 1015.47 1015.47 1015.47 1015.43 1015.39 1015.35 1015.35 1015.39 1015.43 1015.47 1015.59 1015.63 1015.71 1015.75 1015.79 1015.79 1015.67 1015.59 1015.47 1015.27 1015.07 1014.83 1014.59 1014.39 1014.23 1014.11 1013.99 1013.91 1013.79 1013.75 1013.75 1013.75 1013.79 1013.87 1013.99 1014.11 1014.19 1014.23 1014.27 1014.27 1014.23 1014.23 1014.27 1014.31 1014.39 1014.51 1014.59 1014.63 1014.71 1014.75 1014.83 1014.95 1015.07 1015.19 1015.19 1015.15 1015.15 1015.19 1015.19
1015.31 1015.19 1015.11 1015.11 1015.19 1015.31 1015.35 1015.39 1015.35 1015.31 1015.27 1015.23 1015.19 1015.23 1015.27 1015.27 1015.31 1015.39 1015.47 1015.59 1015.67 1015.71 1015.75 1015.71 1015.67 1015.63 1015.55 1015.47 1015.35 1015.19 1014.95 1014.75 1014.55 1014.39 1014.19 1014.07 1013.91 1013.79 1013.71 1013.63 1013.67 1013.71 1013.79 1013.91 1014.07 1014.27 1014.35 1014.39 1014.39 1014.35 1014.35 1014.31 1014.31 1014.35 1014.47 1014.63 1014.79 1014.95 1015.03 1015.07 1015.07 1015.15 1015.23 1015.35 1015.35 1015.35 1015.35 1015.35 1015.39
1015.19 1015.11 1015.07 1015.11 1015.19 1015.27 1015.31 1015.27 1015.19 1015.11 1015.07 1015.03 1015.07 1015.07 1015.19 1015.27 1015.39 1015.51 1015.63 1015.67 1015.67 1015.67 1015.63 1015.63 1015.59 1015.51 1015.47 1015.39 1015.27 1015.11 1014.91 1014.67 1014.47 1014.31 1014.11 1013.91 1013.79 1013.67 1013.59 1013.59 1013.63 1013.79 1013.91 1014.07 1014.23 1014.43 1014.55 1014.63 1014.67 1014.63 1014.59 1014.47 1014.47 1014.47 1014.59 1014.75 1014.99 1015.15 1015.19 1015.23 1015.23 1015.31 1015.35 1015.39 1015.43 1015.47 1015.47 1015.51 1015.55
1015.19 1015.15 1015.11 1015.11 1015.19 1015.19 1015.19 1015.15 1015.07 1014.99 1014.91 1014.91 1014.95 1015.07 1015.23 1015.35 1015.47 1015.55 1015.63 1015.63 1015.63 1015.59 1015.55 1015.55 1015.51 1015.47 1015.35 1015.23 1015.15 1014.99 1014.79 1014.59 1014.35 1014.15 1013.99 1013.83 1013.71 1013.63 1013.59 1013.63 1013.79 1013.91 1014.15 1014.31 1014.43 1014.59 1014.71 1014.83 1014.87 1014.87 1014.83 1014.75 1014.71 1014.67 1014.75 1014.91 1015.11 1015.23 1015.31 1015.35 1015.43 1015.47 1015.47 1015.51 1015.55 1015.55 1015.59 1015.63 1015.67
1015.19 1015.15 1015.11 1015.07 1015.07 1015.07 1015.07 1015.03 1014.99 1014.91 1014.91 1014.99 1015.07 1015.19 1015.35 1015.43 1015.47 1015.51 1015.55 1015.55 1015.55 1015.51 1015.47 1015.47 1015.47 1015.43 1015.31 1015.15 1015.03 1014.87 1014.67 1014.47 1014.23 1014.07 1013.95 1013.83 1013.71 1013.63 1013.67 1013.79 1013.91 1014.07 1014.35 1014.51 1014.63 1014.75 1014.91 1015.03 1015.07 1015.07 1015.07 1015.07 1015.03 1015.03 1015.07 1015.15 1015.23 1015.35 1015.39 1015.47 1015.55 1015.59 1015.63 1015.71 1015.75 1015.79 1015.83 1015.87 1015.91
1015.07 1015.03 1014.99 1014.95 1014.91 1014.91 1014.91 1014.91 1014.95 1014.99 1015.07 1015.19 1015.23 1015.31 1015.39 1015.47 1015.47 1015.47 1015.47 1015.47 1015.47 1015.47 1015.47 1015.43 1015.39 1015.35 1015.23 1015.07 1014.91 1014.75 1014.59 1014.43 1014.27 1014.15 1014.03 1013.91 1013.83 1013.83 1013.87 1013.99 1014.11 1014.31 1014.51 1014.71 1014.87 1015.03 1015.19 1015.27 1015.35 1015.39 1015.43 1015.43 1015.47 1015.47 1015.47 1015.51 1015.51 1015.51 1015.55 1015.63 1015.67 1015.75 1015.83 1015.95 1016.07 1016.11 1016.19 1016.27 1016.31
1014.95 1014.91 1014.91 1014.91 1014.91 1014.91 1014.99 1015.03 1015.11 1015.19 1015.31 1015.35 1015.43 1015.43 1015.47 1015.47 1015.51 1015.51 1015.47 1015.47 1015.51 1015.55 1015.55 1015.47 1015.39 1015.27 1015.11 1014.99 1014.83 1014.67 1014.59 1014.51 1014.47 1014.35 1014.27 1014.19 1014.19 1014.19 1014.23 1014.31 1014.43 1014.63 1014.79 1014.99 1015.19 1015.35 1015.47 1015.63 1015.79 1015.83 1015.87 1015.91 1015.91 1015.91 1015.87 1015.83 1015.79 1015.79 1015.83 1015.91 1015.99 1016.07 1016.15 1016.23 1016.31 1016.35 1016.39 1016.43 1016.43
1014.91 1014.91 1014.91 1014.91 1014.99 1015.07 1015.19 1015.27 1015.35 1015.43 1015.47 1015.51 1015.55 1015.55 1015.59 1015.63 1015.63 1015.63 1015.71 1015.71 1015.71 1015.71 1015.63 1015.51 1015.39 1015.23 1015.07 1014.95 1014.91 1014.79 1014.75 1014.75 1014.75 1014.71 1014.67 1014.63 1014.63 1014.67 1014.75 1014.83 1014.91 1015.03 1015.19 1015.43 1015.55 1015.75 1015.91 1016.07 1016.19 1016.27 1016.31 1016.27 1016.23 1016.19 1016.15 1016.07 1016.07 1016.15 1016.19 1016.27 1016.35 1016.35 1016.39 1016.35 1016.35 1016.35 1016.35 1016.35 1016.35
1014.99 1015.03 1015.07 1015.07 1015.23 1015.35 1015.47 1015.55 1015.63 1015.63 1015.71 1015.71 1015.75 1015.79 1015.79 1015.83 1015.91 1015.99 1016.07 1016.07 1015.95 1015.83 1015.71 1015.59 1015.47 1015.31 1015.19 1015.19 1015.11 1015.07 1015.03 1014.99 1014.99 1014.99 1015.03 1015.07 1015.07 1015.19 1015.31 1015.43 1015.47 1015.51 1015.63 1015.87 1016.03 1016.19 1016.35 1016.47 1016.55 1016.63 1016.63 1016.59 1016.55 1016.55 1016.51 1016.47 1016.43 1016.43 1016.43 1016.47 1016.47 1016.47 1016.43 1016.39 1016.35 1016.35 1016.27 1016.19 1016.19
1015.15 1015.19 1015.27 1015.39 1015.51 1015.67 1015.79 1015.87 1015.91 1015.95 1015.99 1016.03 1016.07 1016.15 1016.19 1016.27 1016.35 1016.39 1016.39 1016.27 1016.11 1015.95 1015.83 1015.75 1015.67 1015.63 1015.55 1015.47 1015.47 1015.39 1015.35 1015.35 1015.35 1015.35 1015.43 1015.55 1015.59 1015.67 1015.79 1015.91 1015.95 1016.07 1016.19 1016.35 1016.51 1016.67 1016.75 1016.79 1016.83 1016.83 1016.83 1016.83 1016.83 1016.83 1016.79 1016.75 1016.67 1016.59 1016.55 1016.51 1016.47 1016.43 1016.35 1016.35 1016.27 1016.19 1016.11 1016.03 1015.91
1015.35 1015.43 1015.59 1015.71 1015.87 1015.99 1016.11 1016.19 1016.27 1016.31 1016.35 1016.43 1016.55 1016.59 1016.63 1016.67 1016.67 1016.67 1016.59 1016.47 1016.35 1016.19 1016.07 1016.07 1016.07 1016.07 1015.99 1015.91 1015.91 1015.91 1015.87 1015.83 1015.87 1015.91 1015.99 1016.15 1016.19 1016.31 1016.35 1016.43 1016.51 1016.59 1016.67 1016.79 1016.95 1017.07 1017.07 1017.07 1017.07 1017.03 1017.03 1017.03 1017.07 1017.03 1016.95 1016.87 1016.75 1016.63 1016.59 1016.47 1016.39 1016.31 1016.19 1016.15 1016.07 1015.99 1015.91 1015.79 1015.63
1015.59 1015.75 1015.91 1016.07 1016.19 1016.35 1016.43 1016.51 1016.63 1016.75 1016.79 1016.91 1016.91 1016.91 1016.91 1016.87 1016.87 1016.83 1016.75 1016.67 1016.63 1016.55 1016.47 1016.43 1016.47 1016.51 1016.47 1016.43 1016.47 1016.47 1016.51 1016.47 1016.47 1016.51 1016.63 1016.71 1016.75 1016.83 1016.87 1016.91 1016.91 1016.95 1016.99 1017.07 1017.19 1017.23 1017.23 1017.23 1017.23 1017.23 1017.23 1017.23 1017.19 1017.11 1017.07 1016.91 1016.79 1016.71 1016.63 1016.47 1016.35 1016.19 1016.07 1015.95 1015.87 1015.79 1015.67 1015.55 1015.43
1015.95 1016.15 1016.35 1016.47 1016.63 1016.71 1016.79 1016.87 1016.95 1017.07 1017.07 1017.07 1017.07 1017.03 1016.99 1016.99 1016.99 1016.99 1016.95 1016.91 1016.91 1016.87 1016.87 1016.87 1016.91 1016.91 1016.91 1016.91 1016.95 1017.03 1017.03 1017.03 1016.99 1016.99 1017.03 1017.03 1016.99 1017.03 1017.07 1017.07 1017.07 1017.07 1017.07 1017.07 1017.19 1017.23 1017.23 1017.27 1017.35 1017.39 1017.39 1017.35 1017.27 1017.19 1017.07 1016.95 1016.87 1016.75 1016.63 1016.47 1016.27 1016.07 1015.91 1015.75 1015.63 1015.47 1015.39 1015.31 1015.19
1016.47 1016.63 1016.75 1016.91 1016.99 1017.07 1017.15 1017.19 1017.23 1017.23 1017.19 1017.15 1017.15 1017.11 1017.11 1017.15 1017.15 1017.15 1017.11 1017.11 1017.11 1017.15 1017.19 1017.23 1017.23 1017.27 1017.31 1017.31 1017.31 1017.31 1017.27 1017.31 1017.31 1017.23 1017.19 1017.19 1017.15 1017.11 1017.11 1017.11 1017.07 1017.07 1017.07 1017.11 1017.19 1017.23 1017.27 1017.31 1017.35 1017.35 1017.39 1017.39 1017.35 1017.23 1017.11 1017.03 1016.87 1016.71 1016.51 1016.31 1016.07 1015.87 1015.71 1015.51 1015.35 1015.19 1015.07 1015.03 1014.91
1016.91 1017.07 1017.15 1017.23 1017.27 1017.35 1017.39 1017.39 1017.35 1017.35 1017.27 1017.27 1017.31 1017.31 1017.31 1017.31 1017.31 1017.31 1017.35 1017.35 1017.39 1017.47 1017.51 1017.51 1017.59 1017.59 1017.59 1017.55 1017.51 1017.47 1017.43 1017.47 1017.39 1017.35 1017.35 1017.31 1017.23 1017.19 1017.19 1017.19 1017.11 1017.07 1017.03 1017.07 1017.11 1017.19 1017.23 1017.27 1017.27 1017.35 1017.39 1017.43 1017.35 1017.27 1017.15 1016.99 1016.75 1016.55 1016.31 1016.03 1015.79 1015.59 1015.39 1015.23 1015.11 1014.99 1014.87 1014.75 1014.63
1017.27 1017.35 1017.39 1017.43 1017.43 1017.47 1017.47 1017.47 1017.47 1017.47 1017.47 1017.47 1017.47 1017.47 1017.47 1017.51 1017.55 1017.59 1017.63 1017.67 1017.71 1017.75 1017.75 1017.79 1017.79 1017.79 1017.79 1017.71 1017.63 1017.63 1017.55 1017.55 1017.47 1017.47 1017.43 1017.35 1017.27 1017.23 1017.19 1017.15 1017.03 1016.91 1016.87 1016.99 1017.07 1017.15 1017.23 1017.31 1017.35 1017.35 1017.43 1017.47 1017.39 1017.23 1017.03 1016.79 1016.59 1016.35 1016.11 1015.91 1015.67 1015.47 1015.31 1015.11 1014.91 1014.79 1014.71 1014.63 1014.51
1017.47 1017.47 1017.47 1017.47 1017.47 1017.47 1017.51 1017.59 1017.63 1017.71 1017.71 1017.75 1017.75 1017.75 1017.75 1017.79 1017.83 1017.87 1017.87 1017.87 1017.91 1017.91 1017.91 1017.95 1017.91 1017.91 1017.83 1017.79 1017.71 1017.67 1017.63 1017.59 1017.47 1017.47 1017.39 1017.35 1017.27 1017.19 1017.07 1017.03 1016.83 1016.75 1016.83 1017.07 1017.11 1017.19 1017.27 1017.35 1017.35 1017.39 1017.43 1017.47 1017.39 1017.23 1016.99 1016.75 1016.59 1016.35 1016.19 1015.99 1015.79 1015.59 1015.39 1015.23 1015.07 1014.91 1014.75 1014.63 1014.55
1017.55 1017.51 1017.47 1017.51 1017.59 1017.67 1017.79 1017.87 1017.95 1017.99 1018.03 1018.03 1018.03 1018.03 1018.03 1017.99 1017.99 1017.99 1017.99 1017.99 1017.95 1017.99 1018.03 1017.99 1017.91 1017.79 1017.79 1017.79 1017.71 1017.63 1017.59 1017.51 1017.47 1017.39 1017.31 1017.19 1017.15 1017.07 1016.99 1016.91 1016.67 1016.63 1016.79 1017.19 1017.23 1017.27 1017.35 1017.35 1017.35 1017.39 1017.43 1017.47 1017.43 1017.27 1017.07 1016.91 1016.71 1016.47 1016.31 1016.07 1015.87 1015.67 1015.51 1015.35 1015.15 1014.95 1014.79 1014.71 1014.63
1017.63 1017.63 1017.63 1017.79 1017.91 1018.07 1018.19 1018.23 1018.27 1018.31 1018.27 1018.23 1018.19 1018.19 1018.11 1018.07 1018.07 1018.03 1018.03 1018.03 1017.99 1017.91 1017.87 1017.83 1017.79 1017.71 1017.67 1017.63 1017.59 1017.51 1017.47 1017.39 1017.31 1017.23 1017.19 1017.11 1017.03 1016.99 1016.91 1016.79 1016.59 1016.63 1016.95 1017.27 1017.27 1017.31 1017.35 1017.39 1017.43 1017.43 1017.47 1017.51 1017.47 1017.35 1017.19 1016.99 1016.75 1016.55 1016.31 1016.03 1015.83 1015.63 1015.43 1015.19 1015.03 1014.87 1014.75 1014.71 1014.63
1017.91 1017.95 1018.07 1018.19 1018.27 1018.35 1018.43 1018.47 1018.47 1018.47 1018.43 1018.35 1018.31 1018.19 1018.15 1018.07 1018.03 1017.99 1017.99 1017.95 1017.91 1017.83 1017.79 1017.71 1017.67 1017.63 1017.55 1017.47 1017.43 1017.35 1017.35 1017.27 1017.23 1017.19 1017.15 1017.11 1017.07 1016.99 1016.91 1016.75 1016.51 1016.79 1017.19 1017.27 1017.31 1017.35 1017.39 1017.43 1017.47 1017.47 1017.51 1017.55 1017.47 1017.31 1017.07 1016.87 1016.63 1016.35 1016.11 1015.87 1015.63 1015.39 1015.23 1015.07 1014.91 1014.83 1014.75 1014.71 1014.63
1018.35 1018.43 1018.47 1018.55 1018.59 1018.59 1018.59 1018.59 1018.55 1018.51 1018.47 1018.35 1018.27 1018.19 1018.15 1018.07 1017.95 1017.91 1017.91 1017.87 1017.87 1017.83 1017.79 1017.67 1017.63 1017.55 1017.47 1017.39 1017.35 1017.27 1017.23 1017.23 1017.23 1017.19 1017.19 1017.11 1017.03 1016.99 1016.91 1016.75 1016.55 1016.91 1017.31 1017.31 1017.35 1017.39 1017.43 1017.47 1017.47 1017.51 1017.51 1017.51 1017.39 1017.19 1016.91 1016.63 1016.39 1016.11 1015.83 1015.59 1015.39 1015.19 1015.07 1014.95 1014.87 1014.79 1014.75 1014.71 1014.67
1018.67 1018.75 1018.75 1018.75 1018.75 1018.71 1018.63 1018.59 1018.55 1018.51 1018.47 1018.35 1018.27 1018.19 1018.11 1018.07 1017.95 1017.91 1017.87 1017.87 1017.87 1017.83 1017.79 1017.67 1017.63 1017.47 1017.35 1017.27 1017.19 1017.15 1017.11 1017.11 1017.15 1017.15 1017.15 1017.11 1017.07 1017.03 1016.95 1016.75 1016.63 1016.95 1017.31 1017.23 1017.35 1017.35 1017.39 1017.47 1017.47 1017.55 1017.55 1017.47 1017.27 1017.03 1016.75 1016.47 1016.19 1015.91 1015.63 1015.43 1015.27 1015.11 1014.99 1014.91 1014.83 1014.75 1014.71 1014.71 1014.63
1018.99 1018.99 1018.91 1018.83 1018.79 1018.75 1018.67 1018.63 1018.55 1018.47 1018.43 1018.35 1018.27 1018.19 1018.07 1017.99 1017.91 1017.91 1017.87 1017.87 1017.83 1017.79 1017.71 1017.55 1017.39 1017.23 1017.11 1017.03 1016.99 1016.95 1016.99 1016.99 1017.07 1017.07 1017.15 1017.19 1017.15 1017.11 1017.03 1016.91 1016.71 1016.95 1017.27 1017.23 1017.31 1017.35 1017.39 1017.47 1017.55 1017.59 1017.55 1017.43 1017.19 1016.91 1016.63 1016.35 1016.07 1015.83 1015.59 1015.39 1015.23 1015.11 1014.99 1014.91 1014.83 1014.75 1014.75 1014.75 1014.75
1019.15 1019.07 1018.99 1018.87 1018.79 1018.75 1018.71 1018.63 1018.59 1018.47 1018.35 1018.31 1018.23 1018.19 1018.11 1017.99 1017.91 1017.87 1017.83 1017.79 1017.71 1017.63 1017.47 1017.35 1017.15 1016.95 1016.91 1016.91 1016.91 1016.91 1016.95 1016.99 1017.03 1017.07 1017.15 1017.19 1017.19 1017.19 1017.07 1016.95 1016.79 1016.91 1017.11 1017.31 1017.31 1017.35 1017.43 1017.51 1017.59 1017.63 1017.59 1017.35 1017.15 1016.87 1016.59 1016.35 1016.07 1015.83 1015.63 1015.39 1015.23 1015.11 1015.03 1014.95 1014.91 1014.91 1014.91 1014.91 1014.91
1019.19 1019.11 1019.03 1018.91 1018.83 1018.75 1018.71 1018.63 1018.55 1018.47 1018.35 1018.31 1018.23 1018.19 1018.11 1017.99 1017.91 1017.79 1017.67 1017.63 1017.47 1017.31 1017.15 1017.07 1016.91 1016.87 1016.87 1016.91 1016.95 1017.03 1017.07 1017.07 1017.07 1017.11 1017.19 1017.23 1017.19 1017.19 1017.11 1017.07 1016.91 1016.83 1016.91 1017.27 1017.35 1017.39 1017.43 1017.51 1017.59 1017.63 1017.63 1017.43 1017.19 1016.91 1016.63 1016.39 1016.15 1015.91 1015.67 1015.47 1015.31 1015.19 1015.19 1015.15 1015.11 1015.07 1015.07 1015.07 1015.07
1019.19 1019.15 1019.07 1018.99 1018.91 1018.79 1018.71 1018.63 1018.51 1018.47 1018.35 1018.31 1018.19 1018.11 1018.03 1017.91 1017.75 1017.63 1017.47 1017.43 1017.27 1017.15 1017.03 1016.95 1016.91 1016.91 1016.91 1017.03 1017.07 1017.07 1017.11 1017.15 1017.11 1017.15 1017.19 1017.19 1017.19 1017.23 1017.23 1017.19 1017.07 1016.95 1016.99 1017.23 1017.35 1017.39 1017.43 1017.51 1017.59 1017.63 1017.63 1017.47 1017.23 1016.99 1016.75 1016.47 1016.23 1016.03 1015.83 1015.63 1015.51 1015.43 1015.35 1015.35 1015.31 1015.23 1015.15 1015.07 1015.07
1019.27 1019.19 1019.11 1019.03 1018.91 1018.83 1018.71 1018.63 1018.55 1018.47 1018.35 1018.19 1018.07 1017.99 1017.87 1017.75 1017.63 1017.47 1017.43 1017.35 1017.23 1017.19 1017.11 1017.03 1016.95 1016.91 1016.95 1017.07 1017.07 1017.07 1017.15 1017.19 1017.15 1017.11 1017.07 1017.07 1017.11 1017.23 1017.35 1017.31 1017.19 1017.07 1017.07 1017.19 1017.27 1017.35 1017.43 1017.47 1017.51 1017.63 1017.63 1017.47 1017.31 1017.11 1016.91 1016.63 1016.35 1016.19 1015.99 1015.87 1015.75 1015.63 1015.51 1015.47 1015.35 1015.27 1015.15 1015.07 1014.99
1019.31 1019.23 1019.15 1019.07 1018.95 1018.83 1018.75 1018.63 1018.51 1018.35 1018.19 1018.07 1017.91 1017.79 1017.71 1017.63 1017.55 1017.47 1017.43 1017.39 1017.35 1017.27 1017.19 1017.11 1017.07 1017.03 1017.03 1017.03 1017.03 1017.07 1017.11 1017.19 1017.19 1017.07 1017.03 1016.99 1016.99 1017.07 1017.19 1017.19 1017.15 1017.07 1016.95 1016.99 1017.15 1017.27 1017.35 1017.39 1017.47 1017.55 1017.59 1017.51 1017.43 1017.23 1017.03 1016.75 1016.51 1016.35 1016.19 1016.07 1015.91 1015.79 1015.67 1015.55 1015.47 1015.35 1015.23 1015.15 1015.03
Wind_Speed
7 7 7 7 7 8 9 9 9 9 9 9 9 9 8 7 7 7 7 7 6 6 6 6 7 7 8 9 9 10 10 11 12 12 12 13 13 12 12 12 12 11 11 10 10 9 9 9 8 7 6 6 6 6 6 5 6 6 7 7 7 8 9 10 10 10 11 12 10
9 9 9 8 8 9 9 10 9 9 9 7 7 6 6 6 6 7 7 7 7 7 7 7 8 9 10 11 10 11 11 12 13 13 13 13 13 13 13 12 12 12 11 11 10 9 8 9 9 8 7 6 6 6 6 6 6 7 8 9 8 7 8 9 9 10 11 11 10
9 9 10 11 12 12 12 10 10 10 9 7 6 5 6 6 5 6 6 6 7 7 8 7 8 10 11 12 11 11 12 13 13 13 12 12 13 13 13 12 12 12 11 10 10 9 9 9 9 8 6 6 6 6 6 6 6 7 8 9 7 7 7 7 9 9 9 8 9
10 10 11 13 15 16 14 11 11 10 8 6 6 6 6 5 5 5 5 6 7 7 7 8 8 9 10 11 12 13 13 13 13 13 13 12 12 13 13 13 12 12 11 11 11 11 11 10 8 7 6 7 8 7 6 6 7 7 7 7 7 7 7 7 8 8 7 7 8
11 12 13 14 15 14 12 10 9 7 6 5 5 6 6 5 5 5 5 5 6 7 8 10 10 10 10 12 14 14 14 13 13 12 12 12 13 13 12 12 12 12 11 11 11 11 11 11 8 6 6 7 7 7 7 8 8 8 7 6 6 7 7 7 7 7 7 7 7
12 14 14 14 13 11 8 6 6 6 5 5 6 6 6 5 5 5 6 6 7 9 11 12 12 12 12 14 14 14 13 12 12 12 13 13 13 12 12 12 12 12 12 12 12 11 10 10 7 6 6 6 6 7 8 9 9 8 8 7 7 7 7 8 7 7 7 8 8
14 15 15 14 11 8 5 4 5 5 6 5 6 6 6 6 6 7 7 7 7 8 10 10 12 12 13 13 13 13 12 11 12 13 14 13 13 13 13 12 12 12 12 12 11 10 10 9 7 6 6 5 6 7 8 9 9 9 9 9 8 7 8 8 7 7 8 10 11
15 15 15 14 10 7 5 6 6 7 7 6 5 5 6 7 7 7 6 6 6 8 10 10 12 13 13 13 13 13 13 13 13 13 13 13 14 13 13 12 12 12 12 12 11 11 10 9 7 7 7 6 6 7 8 9 10 10 10 10 9 8 8 8 7 7 8 11 12
13 13 13 13 10 7 6 6 7 7 6 5 5 5 5 5 5 5 5 6 8 10 11 11 12 13 13 14 14 14 14 13 13 13 13 13 13 13 12 11 11 11 11 11 11 12 11 9 8 7 7 7 7 7 8 9 9 10 10 10 10 9 9 8 9 9 10 11 11
11 12 12 13 12 9 5 4 5 6 5 4 4 3 3 2 4 5 7 8 9 10 11 10 11 12 13 14 14 14 14 14 14 14 14 13 13 13 12 11 11 11 11 10 11 11 11 10 9 9 9 8 9 9 8 8 9 10 10 9 10 11 12 11 10 11 11 11 11
12 11 11 11 11 9 7 5 5 4 4 3 2 2 3 4 6 8 9 10 10 11 11 10 10 11 12 13 13 14 14 13 13 14 14 14 14 14 13 12 12 13 13 12 11 11 10 10 11 11 11 10 9 9 9 10 11 12 12 11 12 13 13 12 12 11 11 11 12
11 11 11 10 10 9 8 7 5 3 2 1 3 4 6 7 9 10 11 11 10 10 10 9 10 11 12 12 13 13 13 14 15 15 15 15 15 15 14 14 14 14 15 14 12 11 10 11 11 12 12 11 9 9 10 12 12 13 13 13 13 13 13 13 13 12 11 11 12
11 11 10 10 9 9 8 6 3 2 2 4 5 7 8 9 10 10 10 10 9 8 8 9 10 11 12 13 13 13 14 15 15 15 15 14 14 15 15 15 15 15 15 14 12 11 11 11 12 12 13 12 10 10 10 12 12 12 12 12 12 12 12 13 13 12 12 12 11
11 11 11 10 9 8 6 4 3 4 5 7 8 9 9 10 9 9 8 8 8 8 9 9 10 10 11 13 13 14 15 16 16 16 16 15 15 15 15 15 15 14 13 11 11 11 11 11 12 12 13 13 12 11 10 10 10 11 11 11 11 11 12 12 13 12 12 11 11
12 12 12 11 9 7 6 6 6 7 8 9 9 9 8 8 7 7 7 8 9 9 9 9 9 10 11 13 14 16 16 16 16 16 16 16 16 16 15 14 14 13 12 10 10 10 10 11 11 12 12 12 12 10 9 8 9 9 10 10 10 10 10 11 11 11 11 10 10
13 13 13 11 9 9 8 8 7 8 8 9 8 8 7 6 6 6 7 8 8 8 8 9 10 11 11 12 14 15 16 16 16 16 16 16 16 15 15 14 12 11 11 10 9 9 8 9 10 10 11 12 11 10 8 7 7 7 8 8 8 9 9 10 10 10 9 9 9
13 13 12 11 10 10 10 10 9 8 8 8 7 7 6 6 6 7 8 8 8 8 9 10 11 11 11 12 13 13 14 14 14 14 14 14 14 14 13 12 10 10 9 9 9 9 8 8 8 8 9 10 10 9 8 6 6 6 6 6 7 7 8 8 8 9 8 8 8
13 12 12 11 11 11 11 11 10 9 9 8 8 7 7 7 8 8 8 8 8 9 10 11 11 11 12 13 12 12 12 12 13 12 12 12 13 12 11 10 9 8 8 8 9 9 9 8 7 7 7 7 7 7 7 6 5 5 5 5 5 6 6 7 7 8 8 8 8
12 12 12 12 12 12 12 11 10 10 9 9 9 8 8 9 9 9 9 9 9 10 11 11 11 12 12 13 12 11 11 11 12 12 12 12 12 11 10 10 9 8 8 8 8 8 8 7 7 6 6 6 6 6 6 6 6 5 5 5 5 6 6 7 7 7 8 8 8
13 13 13 13 13 13 12 11 11 10 10 10 10 10 10 10 10 10 10 10 10 10 11 11 12 12 12 12 12 11 10 9 10 11 12 11 11 11 10 10 9 8 8 8 8 8 8 8 7 7 7 6 6 6 6 6 6 6 7 6 6 7 7 7 7 8 8 8 9
13 13 13 13 12 12 12 11 11 11 11 11 11 11 11 11 11 11 11 12 11 11 11 12 12 12 12 11 11 11 10 8 9 9 10 10 10 10 10 10 10 9 8 9 9 9 9 9 8 8 8 7 8 8 7 7 8 8 8 7 7 7 8 8 9 9 10 10 11
14 13 13 12 12 12 12 12 11 11 12 12 12 12 12 12 12 12 12 12 12 12 11 11 11 11 11 10 10 10 10 8 8 8 8 9 9 10 10 10 10 10 9 10 10 10 10 10 10 10 9 9 9 9 9 8 8 8 8 8 9 9 10 10 10 11 11 12 12
13 13 12 12 12 12 12 12 12 12 12 12 13 13 13 13 13 13 12 12 11 11 11 10 10 11 11 10 11 11 10 9 9 9 9 10 10 11 11 10 10 10 10 9 9 10 9 9 9 10 9 9 9 9 9 8 8 8 8 9 10 10 11 11 11 12 12 12 13
13 12 11 10 11 12 12 12 12 12 12 12 13 13 13 12 12 12 12 11 11 11 11 10 10 11 11 11 12 12 12 11 11 11 11 12 12 12 11 10 10 9 8 7 7 7 7 6 7 7 7 8 8 8 8 8 8 9 9 10 10 11 11 12 12 12 13 13 13
12 12 11 10 11 11 11 11 11 11 11 10 10 10 10 11 11 11 11 11 10 11 11 11 11 11 11 11 12 12 12 12 12 12 11 11 11 10 9 8 7 6 5 5 5 5 5 4 4 5 5 6 7 7 8 8 9 10 10 10 11 11 12 13 13 13 13 14 13
12 12 11 11 11 11 11 10 10 9 9 8 8 9 9 9 9 9 9 9 10 10 11 11 11 10 10 10 11 11 11 10 10 10 10 9 9 9 8 6 5 5 4 4 2 2 2 2 2 3 4 5 6 7 7 8 9 10 11 12 12 12 12 13 13 14 14 14 14
12 12 11 11 10 10 9 9 8 8 8 8 8 8 8 8 7 8 9 9 10 10 10 10 10 9 9 9 10 10 9 8 8 8 8 8 8 8 7 6 5 5 4 3 1 1 1 2 3 3 4 5 6 7 7 8 9 11 12 12 12 13 13 14 14 14 14 13 14
12 11 10 9 9 8 8 7 7 8 8 8 8 8 7 8 9 9 10 10 10 10 9 8 8 8 7 7 8 8 8 8 7 7 7 7 7 7 6 5 5 5 5 3 3 3 3 3 4 4 4 5 6 7 8 9 10 10 11 11 11 12 13 13 13 13 13 13 12
10 8 8 7 7 7 7 8 8 8 8 8 8 8 9 10 10 11 11 11 10 9 8 7 6 6 6 6 7 7 7 7 6 6 6 6 6 6 6 6 7 6 4 2 2 2 2 2 3 4 5 6 6 6 7 8 8 9 9 10 10 11 12 12 12 12 12 12 12
7 6 6 7 7 8 8 9 9 9 9 9 9 10 10 10 10 10 9 9 8 7 6 5 5 5 5 6 6 6 6 5 5 5 6 6 6 7 7 7 9 6 1 5 4 3 1 1 2 3 4 5 6 7 7 8 9 9 10 10 11 12 13 14 14 14 14 13 13
6 6 7 8 9 9 10 10 10 10 9 9 9 9 9 8 8 7 7 6 6 5 5 5 5 5 5 5 5 5 5 6 5 6 6 7 7 7 8 9 10 5 4 9 7 5 3 2 3 4 4 6 6 7 7 9 10 10 10 11 12 13 14 14 14 14 14 14 13
7 8 9 9 10 10 10 10 9 9 9 8 8 7 6 6 5 5 5 4 4 4 5 5 5 5 5 6 5 6 6 6 6 6 7 7 8 8 9 10 9 3 7 9 7 6 5 5 5 5 6 7 7 8 9 10 11 11 12 13 14 15 15 13 13 14 14 14 13
9 10 10 10 10 9 8 8 7 7 6 6 6 5 5 5 4 4 4 4 4 5 5 5 6 6 6 6 6 6 6 6 7 7 7 8 8 8 9 11 6 5 9 8 7 6 6 5 5 6 7 8 7 8 10 11 11 11 11 12 13 14 15 15 14 14 14 14 13
10 10 10 9 8 7 6 6 5 5 5 5 5 5 5 5 5 4 4 4 4 5 6 6 6 6 6 6 7 7 6 6 6 7 7 8 8 8 9 11 4 6 10 7 7 6 5 5 5 6 7 8 8 9 11 12 11 11 12 13 13 14 14 14 14 14 14 13 12
10 8 7 6 6 5 5 5 4 4 5 5 5 5 6 6 6 5 5 5 5 6 6 7 7 7 7 7 7 7 7 6 6 6 7 7 8 8 9 11 5 5 10 7 6 5 4 4 5 7 8 8 8 9 11 12 12 13 13 14 14 14 14 14 13 13 13 13 12
8 6 5 5 4 4 5 5 5 5 5 6 6 6 7 7 7 6 6 5 6 6 7 8 7 7 7 7 7 7 7 7 6 6 6 6 7 8 8 11 7 3 8 6 6 5 4 4 5 7 8 9 8 9 10 11 11 12 13 14 13 13 13 13 13 12 12 12 12
5 5 4 5 5 5 5 5 6 6 6 6 7 7 7 8 7 7 6 6 6 7 8 8 8 8 7 7 7 7 7 8 7 6 6 6 6 7 8 9 8 3 3 6 5 4 3 4 5 7 8 8 9 9 10 9 9 10 12 13 13 13 12 12 11 11 12 12 11
4 4 5 5 5 5 6 6 6 7 7 7 7 7 7 7 7 7 6 6 7 8 8 8 8 8 8 8 7 7 8 8 7 6 6 6 6 6 7 8 9 7 3 5 4 3 2 3 5 7 8 8 9 9 9 9 9 10 11 11 11 12 12 10 9 10 10 11 11
5 5 5 5 6 6 6 7 7 7 7 7 7 7 7 7 7 7 7 7 8 8 9 9 9 9 8 7 7 7 7 8 8 7 6 6 6 6 6 7 9 8 5 3 4 3 2 2 4 6 8 8 9 9 9 9 10 10 11 10 10 11 11 10 9 9 9 11 12
5 5 5 6 6 6 7 7 8 8 8 7 8 7 7 7 7 7 8 8 9 9 9 9 10 9 8 7 7 7 6 7 8 8 7 7 5 4 4 6 8 8 6 1 4 3 2 2 4 6 7 7 8 8 8 9 9 10 10 10 9 9 9 9 9 9 9 10 11
5 5 5 6 6 7 7 7 8 8 8 8 8 7 7 7 8 8 9 9 9 9 9 9 10 10 9 8 7 6 6 6 8 9 8 8 6 5 5 6 7 8 7 3 1 2 2 2 3 5 6 6 7 7 8 8 9 10 10 10 10 9 9 9 9 9 9 10 10
Wind_Direction
266 269 276 286 297 301 300 296 290 286 284 284 285 285 285 284 283 284 288 293 295 296 296 293 291 290 291 294 299 302 302 300 297 294 291 287 283 279 274 268 264 259 253 244 238 235 234 235 238 239 240 240 243 244 243 241 241 243 244 246 249 253 256 259 262 264 264 263 260
272 278 286 296 299 296 290 283 279 278 279 280 283 285 286 284 287 291 296 301 302 302 300 297 297 297 299 302 304 304 301 297 294 291 288 286 283 279 275 270 266 260 254 247 241 237 235 235 238 240 241 238 240 240 239 237 242 248 252 255 259 262 265 267 268 268 266 264 259
279 287 294 298 296 292 287 280 277 276 276 274 270 271 275 281 289 297 303 306 305 303 302 302 303 305 306 306 302 298 294 291 290 288 285 283 280 277 274 270 266 261 255 248 244 242 241 240 241 242 242 238 235 234 235 237 241 248 254 258 261 263 265 265 266 266 265 263 258
282 291 295 296 293 290 288 285 284 282 281 280 277 278 283 291 299 304 307 308 306 306 306 309 309 308 305 299 292 288 286 287 288 287 285 281 278 275 273 270 267 262 256 250 246 245 245 244 244 244 243 241 238 237 237 239 241 245 249 252 257 261 263 265 263 262 260 258 257
294 300 301 298 294 292 291 293 296 297 297 296 296 298 299 301 304 306 309 315 318 319 318 315 309 303 295 288 284 284 285 289 290 289 285 281 276 274 271 269 267 264 259 253 248 246 246 246 247 246 244 243 241 243 245 247 249 250 251 253 256 258 259 259 258 256 255 254 253
306 305 303 300 300 300 300 306 309 308 306 304 305 304 305 306 313 324 332 336 333 325 317 307 298 291 286 284 285 287 290 293 293 290 286 281 276 271 268 265 264 262 259 255 251 248 246 245 247 248 247 248 250 253 254 256 257 258 258 258 257 254 253 251 252 252 252 251 250
307 306 305 307 313 316 313 303 296 292 291 294 300 308 318 331 343 346 345 341 330 313 299 288 283 282 284 288 292 293 294 293 291 289 286 283 278 273 268 264 262 259 257 255 252 248 245 243 246 246 246 249 253 255 256 257 260 262 262 262 257 252 249 249 250 251 252 251 249
311 310 312 316 322 320 307 293 288 286 287 292 307 327 345 359 358 349 336 321 298 283 275 272 277 283 289 296 298 298 296 292 288 286 284 282 279 276 271 267 263 260 258 256 253 248 244 240 242 243 244 245 247 249 251 255 260 265 267 267 263 256 251 249 249 248 249 249 248
315 314 313 311 306 303 305 312 304 300 301 311 335 356 6 2 344 321 300 284 272 268 269 272 281 290 297 301 301 299 296 292 288 284 281 280 278 276 272 268 265 262 259 255 252 248 245 241 240 241 243 245 246 249 252 257 263 267 270 270 267 263 258 254 250 248 247 247 246
311 308 305 301 294 293 299 317 309 308 313 330 351 360 355 322 291 277 271 266 265 267 272 280 291 299 303 303 300 297 294 292 289 286 283 280 277 274 271 267 263 260 256 250 247 245 244 243 242 243 244 246 250 253 257 260 264 265 266 265 265 265 264 261 256 252 249 249 248
303 301 299 298 296 295 293 288 296 309 328 346 332 299 274 263 262 262 262 263 267 273 282 292 301 304 303 299 295 293 291 290 288 284 281 278 276 274 271 268 264 260 255 248 243 241 242 243 244 245 246 246 249 253 256 257 257 256 255 254 257 260 263 265 263 260 257 255 254
304 302 300 298 299 297 294 291 302 315 325 298 271 265 263 261 260 261 263 266 273 283 292 300 302 300 296 292 290 290 289 288 284 281 279 277 275 274 272 269 265 261 257 253 247 244 243 244 246 246 246 246 247 250 253 255 254 252 250 249 250 254 258 262 264 264 264 263 262
308 303 299 297 299 300 300 305 307 290 261 257 261 263 264 264 264 265 268 275 285 293 298 300 296 292 290 289 290 290 290 287 285 283 280 278 276 274 272 269 265 262 260 257 254 252 252 251 251 251 250 249 250 252 257 262 264 264 262 258 256 257 260 263 265 268 269 269 270
306 301 297 295 298 300 300 295 274 260 258 262 264 266 268 268 269 273 281 291 296 298 297 294 290 288 288 291 292 292 291 289 288 285 283 280 277 274 270 267 265 262 260 259 258 258 260 261 261 261 261 261 262 266 271 277 281 282 280 276 272 270 270 271 274 275 277 278 277
305 303 301 300 298 293 282 271 265 265 266 268 268 269 270 274 280 289 297 300 297 295 292 290 289 290 291 292 293 293 292 291 289 286 283 280 277 273 270 268 266 265 264 264 263 264 268 272 274 276 276 276 278 280 284 289 289 288 286 284 282 281 281 281 282 284 285 285 283
310 310 308 306 298 289 281 276 274 274 274 274 274 275 279 287 295 299 299 295 292 290 289 290 291 292 293 294 294 293 293 291 288 286 283 280 278 276 274 272 272 272 273 274 275 276 279 283 286 288 288 288 289 290 291 290 285 282 283 286 289 290 290 289 290 291 290 289 285
315 315 313 307 299 292 287 284 284 283 283 283 285 288 293 298 297 295 291 289 288 289 291 293 294 295 295 295 294 292 291 290 288 286 284 282 282 281 282 282 281 282 283 286 288 290 292 293 294 294 295 296 298 300 301 298 288 285 289 296 299 299 298 298 299 300 299 297 294
318 316 314 309 303 298 294 292 292 292 293 295 298 299 298 296 293 290 288 287 289 292 295 297 297 296 295 294 293 292 291 291 291 290 289 288 289 290 292 293 292 292 294 296 299 302 305 308 312 313 313 313 314 317 318 316 310 307 307 308 307 307 308 310 313 314 314 314 312
318 317 316 313 311 309 307 305 305 305 305 305 304 301 299 297 295 294 294 293 296 299 301 301 299 296 294 293 294 294 295 297 298 299 299 299 301 303 305 306 306 308 310 313 315 320 325 332 340 342 341 338 335 331 329 325 324 324 325 325 325 325 325 324 324 323 321 318 313
318 320 320 320 320 320 321 322 320 318 314 311 308 306 304 303 303 303 304 306 308 309 307 303 299 296 295 295 298 301 305 308 310 311 312 315 319 323 326 326 327 331 338 346 348 350 354 357 359 358 355 351 345 340 337 335 338 340 342 341 336 331 325 319 314 309 303 298 293
323 325 326 327 330 332 334 334 331 327 322 318 315 314 313 313 315 317 318 318 316 311 306 301 298 297 299 303 308 314 319 325 326 327 329 333 338 343 348 349 349 356 7 17 17 15 13 10 7 3 359 355 352 348 346 345 344 342 338 331 322 313 305 298 293 288 283 279 275
329 331 334 337 341 344 344 342 339 334 330 327 326 325 326 328 329 329 325 320 314 309 305 303 304 307 313 320 326 331 335 341 343 346 350 353 356 1 6 6 7 14 24 31 29 24 18 12 8 3 359 354 351 348 344 339 333 326 319 310 302 295 290 284 279 275 271 267 264
333 337 340 344 348 349 348 345 341 339 337 335 336 337 338 338 335 330 325 319 316 316 317 318 324 331 337 342 347 350 352 356 358 4 9 11 12 13 15 15 16 21 28 35 30 23 16 9 4 0 356 350 345 338 331 324 316 308 301 295 289 284 279 276 272 268 265 262 260
337 341 345 348 349 349 347 345 344 343 342 342 343 343 342 340 335 330 328 328 332 336 340 345 352 356 357 1 6 7 7 9 10 14 17 18 16 15 14 14 14 15 20 28 29 25 18 8 1 354 348 341 333 324 316 310 303 297 291 287 283 279 275 271 269 267 266 265 264
343 347 350 351 351 350 349 349 349 348 348 347 347 346 344 341 339 339 341 346 352 357 1 5 10 11 11 14 18 19 18 18 17 18 18 17 15 13 10 7 4 1 0 10 32 36 30 15 360 346 336 327 319 312 306 301 297 292 287 283 279 276 273 270 268 266 266 266 265
351 354 356 356 356 356 357 357 357 355 353 351 352 352 351 350 349 352 357 3 9 12 14 16 19 19 18 21 22 22 20 19 16 13 12 9 7 5 3 357 350 342 338 341 17 41 35 6 336 319 313 311 307 304 300 296 291 286 282 278 275 273 272 271 270 268 266 265 264
359 360 0 2 3 5 7 6 5 3 1 1 2 3 3 4 7 11 15 18 20 21 21 21 20 19 18 19 17 16 14 12 8 4 2 359 355 353 350 342 333 323 315 310 278 225 225 249 260 269 279 291 294 293 291 287 283 279 276 273 271 271 271 271 271 270 268 266 265
3 4 6 11 14 16 16 15 14 13 13 14 15 17 19 22 25 26 26 25 24 22 20 18 15 13 12 10 6 4 3 1 358 355 351 345 340 335 329 319 306 295 283 265 231 218 225 243 257 265 271 279 282 279 276 275 274 273 273 273 273 273 273 273 273 273 274 275 275
6 9 16 25 26 26 26 26 26 25 24 24 26 29 31 32 31 28 26 24 22 19 15 10 9 6 2 355 353 352 351 347 343 338 331 324 318 311 303 294 285 279 267 212 185 191 223 264 280 282 281 279 277 275 274 274 277 280 282 284 285 286 286 287 287 287 287 287 287
9 17 27 35 34 34 34 34 33 31 29 29 29 30 31 31 28 25 22 19 17 13 7 358 356 352 348 343 340 336 332 327 321 315 308 302 298 295 292 289 284 282 249 112 111 107 87 348 317 308 302 295 288 286 286 288 290 291 292 291 291 292 292 293 293 292 291 291 291
15 24 33 38 38 38 36 35 33 31 29 28 26 25 25 25 23 19 15 11 5 360 352 342 336 333 329 324 318 313 308 304 301 298 295 295 295 296 295 293 291 299 91 106 104 96 79 47 9 352 341 331 311 300 296 295 293 291 290 288 288 287 287 286 286 286 287 289 291
21 27 33 36 38 38 36 33 30 28 26 24 22 19 17 16 14 10 3 356 346 338 332 325 321 317 311 304 299 296 295 296 297 299 301 304 305 306 304 298 303 357 91 104 94 80 63 41 18 1 348 336 315 301 294 289 287 285 283 281 281 280 280 280 282 284 286 289 291
26 29 33 35 35 34 31 28 26 22 18 15 12 6 1 358 357 353 348 341 330 324 319 314 310 304 299 295 294 295 296 300 304 307 309 310 309 309 306 297 321 68 95 95 81 67 52 32 12 353 338 325 307 295 288 285 282 280 278 278 278 279 281 283 285 288 291 293 294
31 31 32 32 29 26 23 20 16 11 5 360 357 351 345 340 340 337 334 329 322 316 310 306 300 295 292 291 294 297 300 303 305 307 308 309 309 310 307 300 331 85 101 93 81 68 49 27 3 344 329 315 302 292 287 285 282 280 280 281 283 285 287 290 292 294 295 296 296
34 31 29 26 21 15 9 3 0 356 351 348 344 340 336 332 331 329 325 321 315 309 304 299 293 289 288 289 294 297 300 301 302 305 308 312 312 313 311 304 330 86 104 101 88 72 49 21 356 338 325 312 300 292 290 289 287 287 288 289 290 292 294 295 296 298 299 299 299
33 26 19 13 7 360 353 349 346 344 342 340 336 333 330 328 326 323 319 313 306 301 297 294 291 290 292 298 304 308 310 311 311 312 314 316 314 314 312 307 323 68 106 104 92 74 48 16 352 336 324 311 302 296 295 294 293 293 294 294 295 296 298 300 302 304 304 304 303
25 15 4 357 352 348 343 339 336 335 336 335 332 329 326 324 321 317 313 307 300 296 295 295 298 303 310 319 322 323 322 320 318 316 314 313 309 310 309 308 315 333 93 105 98 81 51 11 350 336 325 313 307 303 301 299 298 297 297 298 298 301 304 307 308 309 308 307 306
9 1 353 346 342 339 336 332 330 330 330 330 327 324 321 317 314 313 311 307 304 303 305 307 312 318 324 328 326 325 323 320 317 313 308 302 301 303 307 310 311 316 338 104 109 97 58 8 348 336 327 316 312 309 306 303 302 301 301 303 304 307 310 311 311 309 306 303 300
354 349 343 338 334 332 331 330 328 326 323 320 318 316 313 311 313 316 318 316 317 318 319 319 321 324 326 326 321 319 318 317 315 310 301 291 293 298 304 308 307 312 321 112 126 118 74 9 349 338 329 318 315 313 311 307 305 305 306 307 308 309 309 309 306 303 299 297 295
341 336 331 326 325 325 326 327 324 320 316 313 311 310 310 314 320 324 327 327 327 326 325 323 323 323 323 320 314 312 313 315 313 309 301 289 288 285 284 290 294 301 304 184 141 129 93 13 351 340 333 323 321 318 314 311 309 309 309 310 309 309 308 307 305 303 301 300 299
325 321 318 318 318 319 320 320 319 317 315 313 313 314 316 321 327 331 333 332 331 328 325 323 322 321 320 315 310 309 310 311 310 308 304 296 291 275 261 269 279 290 296 291 157 115 89 27 351 341 335 329 325 320 316 313 312 312 313 312 311 311 310 309 307 305 304 303 302